GFSGBSN_prec_cthk_210.txt.gz
RH
19 19 20 21 22 24 25 27 27 27 27 28 29 30 30 34 37 38 39 39 38 37 42 44 45 41 42 42 40 33 32 30 29 29 29 28 29 29 29 31 30 29 28 26 26 24 21
17 18 19 20 21 23 25 26 27 28 29 28 30 32 33 35 38 40 40 39 36 36 40 42 44 44 42 44 42 37 33 32 31 31 32 31 31 30 29 29 29 30 29 28 27 25 24
18 17 18 19 20 21 24 27 27 28 27 29 31 33 35 37 39 40 42 41 37 35 39 41 42 46 44 45 44 39 36 34 33 32 33 33 32 33 33 32 32 30 27 25 26 27 26
21 20 20 19 19 20 23 24 26 27 28 30 33 33 35 36 39 41 44 45 39 36 37 40 43 45 47 44 40 41 38 36 34 33 33 33 33 33 32 31 30 28 27 29 30 28 27
21 21 21 22 20 21 21 22 24 28 30 32 32 33 35 37 38 40 45 48 45 38 38 41 45 47 53 46 45 45 41 39 37 36 35 35 35 34 33 32 32 34 34 32 33 29 28
26 24 23 26 23 22 22 23 25 26 28 31 32 33 35 38 38 39 45 50 48 42 40 41 48 49 53 49 48 46 44 42 40 40 39 37 37 37 36 36 37 40 38 32 27 29 26
30 25 26 24 25 25 25 25 26 29 28 30 32 33 35 37 38 40 46 49 55 50 49 50 46 48 48 51 46 44 43 44 43 41 39 38 39 37 37 35 30 27 24 24 23 24 25
42 34 32 28 26 28 27 24 27 27 30 31 33 34 34 35 38 41 48 57 58 56 50 51 47 53 50 46 39 40 39 38 37 36 35 37 38 33 31 27 27 28 29 30 29 29 29
63 57 39 33 31 34 31 28 28 29 29 33 34 34 34 36 41 42 53 58 58 57 57 46 51 53 46 39 39 40 37 35 35 35 34 37 36 35 36 37 37 36 37 35 33 32 32
64 64 54 45 38 38 34 34 32 32 29 33 35 36 35 39 44 50 61 61 60 60 60 50 50 47 38 37 38 35 35 37 34 36 33 35 40 43 39 40 38 37 37 35 33 34 34
83 71 63 58 55 48 42 37 37 40 35 37 41 44 45 46 52 61 65 61 61 64 74 53 50 50 46 39 38 38 38 41 41 41 43 43 43 41 40 41 40 38 35 35 34 34 34
91 93 77 74 68 66 63 57 49 50 53 49 51 54 53 52 51 61 65 62 68 73 81 60 54 50 48 44 40 41 41 42 43 45 45 45 45 42 42 40 39 37 36 34 34 34 37
96 98 97 89 86 79 83 81 78 71 69 71 66 59 58 61 64 68 70 74 82 85 63 61 60 53 51 48 46 43 46 48 49 51 52 50 49 48 43 41 41 40 39 41 40 44 41
94 98 95 96 93 85 89 90 90 93 92 89 89 85 78 76 77 77 78 86 87 73 68 60 62 59 57 56 52 50 49 50 51 55 55 51 52 51 48 45 44 43 45 49 52 50 39
98 97 96 94 93 99 97 96 96 97 99 98 98 93 90 83 87 86 87 86 77 78 73 71 71 67 60 59 58 59 58 58 57 58 60 59 53 53 52 50 47 48 46 48 49 48 46
97 96 95 95 95 97 97 97 97 98 98 99 98 94 89 92 95 97 94 82 82 74 76 77 79 73 69 66 67 69 65 62 62 59 58 57 58 54 51 50 48 52 53 54 54 60 56
96 93 91 92 92 95 97 98 99 99 99 99 99 98 87 97 99 98 86 78 83 77 80 81 81 79 74 72 69 72 72 69 66 64 60 56 54 51 54 57 59 57 55 55 52 53 58
88 89 88 89 90 92 96 98 98 100 99 99 99 99 96 96 99 94 79 79 77 79 78 82 80 80 78 76 76 76 76 77 77 73 69 72 69 67 62 59 58 58 59 58 60 55 58
76 77 84 86 88 93 95 96 97 99 99 99 99 98 99 99 98 89 84 82 80 83 82 80 81 77 78 83 89 84 81 78 82 82 85 84 93 82 61 55 54 54 56 55 54 55 50
63 69 70 76 82 91 96 97 97 98 99 99 99 99 98 98 92 88 87 84 83 80 83 84 83 85 82 86 86 87 87 85 87 89 92 91 92 79 74 67 71 74 68 66 66 64 56
61 59 60 64 73 85 91 96 98 98 99 98 98 97 96 97 90 94 90 80 84 87 87 89 87 86 87 92 93 92 92 93 94 95 96 95 96 87 77 74 73 70 63 66 70 62 69
56 61 62 64 63 68 82 88 93 98 99 98 98 97 98 96 92 94 94 78 84 89 90 90 88 89 91 87 88 96 94 96 95 96 94 95 93 88 80 80 80 77 63 65 62 62 63
53 55 59 61 56 55 59 74 85 92 98 97 97 98 98 96 97 98 84 82 85 92 88 85 89 94 95 85 92 94 95 95 94 96 96 97 96 97 86 84 82 80 61 61 55 57 61
56 56 56 58 57 56 57 59 76 87 92 96 97 98 98 97 97 92 91 92 91 92 92 89 92 94 93 93 98 99 99 98 98 96 92 96 98 98 93 87 93 57 53 53 54 52 54
52 54 58 57 57 56 55 55 60 76 88 88 93 98 98 97 97 95 96 95 94 93 93 95 95 94 96 98 98 98 98 98 96 96 95 94 97 99 97 92 71 58 55 52 52 47 46
50 55 54 55 54 56 55 52 57 65 78 88 90 92 96 97 96 93 96 97 96 96 99 98 98 98 98 98 98 97 96 91 95 90 91 96 96 98 98 95 83 64 55 54 58 56 56
49 54 56 51 52 52 54 52 55 64 72 81 84 91 96 96 95 96 96 94 96 96 97 98 98 98 98 98 98 98 97 92 97 92 93 96 98 96 96 96 83 69 66 58 64 58 53
59 59 54 50 51 48 42 43 58 62 69 81 75 89 93 97 97 97 97 97 97 97 97 97 99 97 98 98 98 98 98 96 94 88 91 92 98 97 98 97 94 69 72 69 70 66 64
64 58 52 51 48 45 36 46 61 65 69 77 80 82 87 88 89 92 97 97 97 98 97 96 97 95 96 98 98 98 98 97 91 96 83 91 83 87 84 81 75 71 74 70 70 69 62

GFSGBSN_prec_cthk_216.txt.gz
RH
21 21 22 22 22 22 23 23 24 23 24 24 24 24 24 26 26 28 29 30 32 33 33 34 31 28 31 36 40 38 39 36 31 28 27 27 27 27 27 27 27 27 27 26 25 26 25
21 21 21 22 22 22 22 22 22 23 23 24 24 24 25 25 27 28 30 30 32 32 34 35 35 32 30 37 40 40 38 38 34 31 29 28 28 29 28 28 30 29 28 27 26 26 26
20 19 20 21 21 21 20 21 21 21 22 23 23 23 25 26 25 28 31 31 31 32 34 35 36 37 32 36 41 38 37 37 37 34 32 31 31 30 30 31 29 30 30 28 26 25 26
19 19 19 20 20 20 20 19 20 20 20 21 22 23 25 26 24 28 30 30 31 33 34 34 35 38 37 39 38 40 40 39 37 37 35 34 34 31 30 30 30 31 30 33 29 26 25
20 19 19 20 20 20 19 19 19 19 19 20 21 22 23 24 23 25 28 29 31 32 33 35 33 37 38 38 40 42 42 43 41 41 39 36 34 34 33 33 34 33 38 35 30 28 28
23 22 21 20 20 20 19 19 19 19 19 19 20 21 22 22 23 24 26 28 30 33 33 35 35 36 37 38 38 42 43 43 44 44 42 39 37 37 36 37 40 36 35 33 31 28 25
26 24 24 23 23 23 23 21 20 20 20 19 19 20 21 22 22 24 25 27 33 35 34 35 35 34 37 38 42 46 47 44 44 43 44 42 41 40 39 39 37 35 33 33 34 31 27
30 27 26 25 25 27 27 25 22 23 22 22 22 24 23 24 24 24 25 31 37 40 35 30 34 36 38 45 47 43 38 40 41 44 45 45 45 39 40 38 34 31 30 30 29 30 32
48 37 30 28 26 26 26 24 24 24 24 24 24 26 26 25 26 24 24 28 39 42 41 31 35 41 45 45 41 38 39 38 40 42 45 47 39 37 38 34 34 35 36 38 36 35 35
64 61 51 40 34 31 30 28 28 26 25 26 26 26 27 26 27 24 25 33 39 44 48 35 39 41 44 39 36 36 38 38 38 41 41 42 39 37 36 39 39 44 41 37 37 37 38
75 72 76 64 55 46 44 37 37 37 28 27 28 28 27 27 26 29 32 36 45 48 52 36 40 40 42 40 40 34 35 36 37 38 38 38 37 40 42 41 42 43 41 39 38 38 38
94 90 82 81 68 69 63 54 52 52 41 42 39 33 33 30 28 31 35 36 49 57 63 40 41 42 43 43 43 40 37 38 39 38 37 41 42 42 44 44 43 42 42 42 42 43 46
97 94 98 86 79 81 80 69 75 71 66 61 53 49 44 39 31 39 39 44 55 67 40 41 44 46 47 48 47 45 43 42 45 47 47 47 46 44 45 45 44 44 47 53 52 53 52
89 89 89 87 93 88 82 78 80 80 74 74 71 64 53 46 44 43 45 54 66 50 44 42 48 50 51 50 50 49 51 49 47 47 50 52 52 46 46 45 46 46 48 57 58 59 54
90 88 88 89 90 92 87 90 87 87 87 88 85 81 72 55 56 49 51 66 53 50 45 46 54 59 57 54 53 54 52 56 54 53 54 57 56 49 47 48 50 51 50 50 53 52 57
91 83 78 84 90 93 94 96 96 94 93 97 98 92 85 82 79 70 68 57 54 48 50 49 56 60 65 61 59 60 59 57 57 57 56 58 61 55 55 56 54 55 56 60 62 64 65
78 78 75 80 86 90 93 92 93 98 98 99 99 97 88 95 97 93 72 67 58 53 53 56 60 64 64 66 65 66 67 63 62 63 65 64 61 59 57 57 60 62 60 58 58 67 67
77 78 74 76 85 84 91 94 96 97 99 99 99 98 91 99 98 94 75 67 69 66 65 65 68 70 68 68 70 74 75 69 69 71 72 71 73 72 61 63 64 63 66 64 69 64 68
71 79 77 80 82 89 95 91 94 98 99 99 98 98 95 98 97 94 86 83 81 78 75 75 76 78 74 74 79 76 72 74 73 74 75 76 81 88 77 71 68 69 68 70 71 71 70
70 69 81 87 85 90 91 90 97 94 99 99 99 98 99 99 96 95 94 94 91 87 87 83 80 83 86 86 79 75 74 76 74 73 75 78 85 82 81 77 75 77 74 75 76 85 70
58 67 69 81 89 87 87 96 97 99 99 99 98 96 90 98 95 96 97 92 89 87 87 87 88 82 86 92 87 81 78 78 80 78 83 85 89 89 85 82 85 80 80 87 91 85 85
54 56 62 73 86 88 91 98 97 99 99 99 97 96 95 95 95 98 98 92 93 91 93 89 85 85 87 83 79 85 82 86 85 87 89 92 93 94 88 87 90 87 77 85 81 80 84
44 53 56 54 74 81 84 97 99 99 99 98 96 92 96 93 95 98 92 89 91 95 93 91 90 92 92 79 86 84 87 87 88 88 96 98 98 99 91 92 94 88 69 74 73 72 73
42 46 47 51 54 68 80 90 96 97 98 98 97 97 99 96 97 86 87 92 93 94 94 93 95 96 91 93 94 96 97 98 97 95 94 98 98 99 97 99 96 60 59 63 66 61 63
45 50 46 41 50 58 66 76 82 91 95 97 98 99 98 97 96 95 90 91 93 93 97 97 96 96 97 98 99 98 98 99 97 98 97 95 97 98 98 98 87 63 63 64 70 56 57
50 50 51 47 40 53 63 64 76 79 87 98 97 97 98 98 96 95 97 96 95 96 98 97 97 98 98 98 98 98 96 94 98 95 96 98 97 98 99 97 93 61 60 62 66 64 52
66 59 55 53 45 41 54 62 63 64 85 92 95 98 99 98 96 98 98 95 94 95 96 98 99 98 99 98 98 98 98 95 98 91 91 97 99 97 96 98 93 67 68 67 76 61 56
84 73 64 63 56 47 49 58 66 68 74 83 78 87 96 96 95 96 98 96 98 96 96 96 99 98 98 98 98 97 98 95 97 90 91 94 97 97 99 98 93 69 74 77 70 66 62
88 80 72 69 67 55 53 57 66 62 69 76 76 79 92 98 95 93 94 97 97 96 97 97 97 94 98 98 97 98 98 98 94 97 92 96 88 93 93 89 81 76 75 75 73 71 67

GFSGBSN_prec_cthk_219.txt.gz
RH
18 19 20 21 22 23 24 24 24 24 25 24 24 23 23 23 23 25 25 27 28 30 30 30 31 29 29 29 36 38 38 38 35 32 28 26 26 27 27 26 26 26 27 28 28 27 25
19 19 21 21 21 22 23 23 23 23 24 24 23 23 23 23 23 25 25 27 28 29 29 30 32 30 32 32 34 38 36 37 37 35 32 29 28 28 28 27 27 27 28 28 27 27 26
20 20 21 21 22 22 23 23 22 22 23 23 23 23 22 22 23 24 25 26 28 29 29 29 30 31 30 32 36 37 37 37 36 37 36 32 31 30 29 29 28 28 28 27 28 27 25
21 21 22 22 22 22 22 23 22 21 21 22 21 22 22 22 22 23 24 24 27 28 28 29 29 29 29 29 37 36 35 38 41 37 37 37 34 33 33 30 30 30 30 31 27 27 26
20 20 21 22 21 22 22 22 21 21 20 20 20 20 21 21 21 21 22 22 24 26 27 29 29 30 30 31 36 38 37 39 43 42 41 41 38 36 34 35 35 33 34 33 32 29 28
21 20 20 21 21 21 21 21 21 20 20 19 19 19 19 20 20 20 21 21 22 25 29 30 30 32 30 33 35 39 39 41 43 43 43 43 41 39 39 40 41 36 33 34 34 29 28
25 22 22 20 20 21 21 20 21 20 20 19 19 19 19 19 20 20 20 21 23 27 29 29 28 28 29 34 36 39 44 47 46 46 46 44 44 43 41 39 39 39 36 34 35 31 28
31 26 25 24 23 22 21 20 20 20 20 20 19 20 20 20 20 20 21 23 30 33 30 26 24 26 30 37 44 44 42 40 42 47 44 45 46 43 41 41 41 39 34 34 33 35 31
35 31 30 29 27 26 25 24 23 23 22 24 24 23 23 22 23 22 24 25 28 36 34 25 24 28 35 41 43 37 36 39 42 46 46 47 42 41 41 42 36 34 33 33 34 35 35
50 35 33 34 31 30 28 27 28 25 26 29 32 31 26 25 25 23 24 28 33 36 38 24 28 33 38 39 38 37 37 38 39 44 45 45 42 42 39 38 37 38 40 41 40 38 40
71 57 44 46 43 35 34 30 32 28 28 28 29 29 27 28 29 25 29 34 36 36 38 22 30 33 35 37 38 37 36 38 39 40 43 42 38 41 41 40 38 41 41 42 41 41 40
87 73 66 57 59 51 45 34 34 32 30 30 31 33 35 33 30 29 32 36 39 46 55 26 30 33 36 40 41 40 37 37 40 39 40 39 39 39 40 41 41 42 42 44 46 46 48
92 97 88 77 69 69 66 54 54 45 38 38 37 41 40 35 32 37 35 42 50 58 33 27 30 33 37 39 42 44 42 40 41 45 44 41 42 41 43 44 45 46 48 54 54 53 50
96 97 99 97 91 79 75 68 72 70 54 52 54 57 55 45 47 45 51 57 63 43 35 33 35 36 41 42 43 46 48 46 43 45 50 52 51 46 48 48 49 47 48 56 56 57 51
95 98 93 99 90 97 90 78 84 85 87 83 72 73 75 64 67 57 61 69 55 50 38 37 39 41 42 44 44 47 50 52 49 47 50 56 54 48 47 48 50 50 52 53 55 55 59
97 99 95 91 89 95 94 86 89 86 94 93 89 88 77 79 85 80 74 61 55 44 38 39 45 44 48 50 50 51 53 50 50 52 53 55 61 52 53 55 56 56 58 60 63 66 65
96 93 93 97 96 95 93 91 92 94 99 92 98 95 81 88 96 95 76 67 59 51 45 49 50 51 56 56 55 55 57 56 55 54 57 57 57 58 56 56 58 59 59 60 63 70 68
92 90 88 98 98 96 89 85 82 87 96 100 98 97 89 92 100 88 75 71 65 64 57 59 59 57 56 55 59 60 62 62 63 64 64 65 67 69 64 60 59 58 60 62 67 67 69
86 86 88 90 93 92 86 81 83 81 96 98 98 98 93 98 97 84 78 80 81 76 70 66 66 63 61 61 67 65 62 66 69 70 70 70 73 82 78 72 66 66 64 66 71 72 69
64 77 80 83 88 89 82 79 80 78 91 99 98 99 99 97 93 89 88 91 87 79 79 74 71 75 74 74 71 68 72 75 73 76 74 76 80 76 70 70 68 69 65 67 71 83 72
53 60 70 78 83 85 87 79 78 85 88 99 98 98 94 97 91 91 92 88 89 84 81 83 82 79 82 85 80 73 75 82 81 84 84 84 83 83 75 75 78 76 71 78 82 79 85
42 51 55 57 73 77 85 84 80 84 91 98 98 94 94 90 92 98 95 82 82 85 89 88 85 88 90 84 77 79 83 86 88 93 92 91 90 91 82 86 86 82 68 85 79 76 79
35 40 45 50 52 69 76 84 84 84 88 97 94 96 99 87 94 98 90 76 80 92 85 85 90 95 92 74 86 82 86 85 89 91 96 97 97 98 89 91 94 88 67 72 75 72 74
34 36 36 40 53 54 63 76 84 86 92 94 94 95 95 94 93 90 88 89 86 90 90 90 92 93 81 91 93 94 96 96 96 96 95 97 98 98 95 99 97 64 60 65 66 60 65
42 41 41 41 42 52 51 64 82 92 94 97 98 98 94 95 92 93 94 96 93 93 95 95 93 91 94 96 99 99 98 98 95 96 98 95 97 98 98 98 89 64 64 65 71 52 56
43 39 45 43 40 45 48 52 70 82 92 98 98 99 99 96 95 95 97 95 95 94 99 97 98 98 98 98 99 97 97 93 97 94 95 98 97 98 98 98 95 62 60 63 67 60 50
46 47 45 51 45 46 49 49 57 73 86 95 94 98 98 98 95 99 98 96 96 96 96 98 98 99 99 98 99 98 98 95 98 94 93 96 98 97 97 97 94 71 65 69 79 57 55
59 62 59 60 61 52 52 52 54 72 81 94 97 95 98 97 95 98 98 97 99 98 97 97 99 98 99 99 99 98 98 97 98 92 91 97 97 95 98 99 94 69 76 73 67 64 61
77 77 73 72 76 71 63 56 55 65 76 89 92 91 96 98 95 96 97 97 98 98 99 97 97 96 98 98 98 98 98 98 97 97 93 98 92 96 95 90 81 77 73 72 73 70 65

GFSGBSN_prec_cthk_225.txt.gz
RH
10 12 15 20 23 26 26 26 26 27 26 26 25 25 25 24 22 22 22 21 20 21 22 23 23 23 22 23 25 27 29 32 34 35 34 31 29 27 26 26 26 25 23 23 22 23 24
10 12 13 18 22 25 26 26 27 28 26 27 26 26 25 23 22 21 22 21 21 20 21 22 22 22 22 23 24 27 28 29 32 34 35 35 33 31 28 28 27 27 25 24 23 22 22
11 11 13 15 19 23 26 26 27 28 27 27 27 26 26 24 23 22 21 20 19 20 20 20 22 22 21 21 23 27 29 30 30 33 34 35 36 35 32 30 28 27 27 25 23 24 24
13 12 13 15 17 20 24 26 27 27 28 28 27 26 25 24 23 22 20 20 18 18 18 19 19 21 21 22 25 28 29 31 32 33 34 36 37 36 36 34 32 30 28 26 24 24 25
21 14 13 14 16 19 21 24 26 27 27 27 28 26 25 24 23 21 20 18 18 17 17 18 19 20 20 24 25 27 28 30 35 36 36 37 39 39 37 38 36 34 31 31 28 25 26
28 20 15 15 16 18 20 21 23 25 27 27 26 26 24 23 22 19 18 17 17 16 18 19 20 22 21 21 23 25 27 30 37 40 40 39 39 41 41 40 37 36 35 33 32 28 27
29 26 21 17 17 19 21 21 23 24 25 26 26 25 23 21 21 19 17 17 17 16 18 17 18 18 16 19 21 24 27 34 39 41 43 44 43 43 42 41 39 40 40 38 35 31 29
40 28 31 22 19 20 21 22 23 24 26 27 26 26 25 21 20 18 17 17 18 19 19 15 15 16 17 18 20 21 31 37 39 43 43 46 47 43 43 42 43 41 42 38 34 32 30
45 33 29 30 25 23 22 23 25 26 26 28 27 27 25 22 20 19 18 18 18 22 25 17 17 17 18 20 22 25 32 36 36 41 43 45 43 42 42 42 43 42 42 39 35 34 32
59 38 30 29 30 28 26 25 27 28 28 28 28 27 24 22 22 20 20 19 20 26 25 18 20 21 21 25 26 27 30 31 35 40 43 44 42 43 42 42 42 43 38 37 37 35 35
75 46 40 34 34 30 30 29 29 30 30 29 28 25 25 24 25 23 22 23 27 26 27 17 26 26 28 29 25 27 30 31 33 39 42 39 41 43 44 41 40 40 38 37 35 36 36
90 51 49 39 40 32 30 29 28 29 29 28 28 28 29 27 26 26 28 31 29 29 30 22 29 29 28 27 28 28 28 29 33 34 39 40 39 40 40 40 39 38 38 40 42 41 41
98 72 55 49 45 38 35 32 31 31 32 32 32 32 32 31 28 30 35 37 35 37 24 22 28 27 27 30 31 28 30 30 33 36 38 40 40 40 41 41 41 40 41 46 47 46 41
98 92 72 65 55 47 44 40 38 37 37 39 37 38 36 35 34 34 41 41 43 30 26 27 27 28 30 33 33 31 33 34 34 35 37 40 43 43 43 42 44 46 45 52 55 48 43
96 98 90 81 61 59 59 49 47 45 46 46 46 46 43 38 40 39 47 52 39 35 27 27 30 30 31 32 35 36 38 37 36 36 37 41 42 44 46 46 47 48 47 47 52 52 52
98 99 98 85 76 80 72 56 56 55 56 60 55 53 50 46 45 46 56 42 40 31 29 30 30 28 33 34 37 41 41 38 35 38 41 43 44 42 45 49 49 49 50 53 54 56 53
98 98 97 93 90 76 77 69 65 59 62 63 61 63 56 55 59 57 54 50 43 37 33 32 29 30 31 34 37 43 43 40 38 39 45 51 53 49 46 47 52 55 54 53 54 56 54
98 97 97 94 96 88 88 80 80 75 73 70 67 62 62 64 69 61 53 50 46 44 39 36 35 33 35 37 45 47 48 44 43 46 49 53 60 59 48 48 53 55 55 55 59 54 56
96 99 98 93 91 91 89 88 93 99 92 87 81 74 80 75 71 62 63 63 58 53 50 47 45 46 45 52 52 54 53 51 52 54 58 59 65 68 67 60 56 53 55 57 58 60 56
96 97 94 94 93 94 96 96 93 98 93 90 98 98 99 97 84 75 81 79 75 70 65 62 62 66 70 68 60 59 58 56 59 62 66 66 67 66 63 63 63 62 56 57 60 65 61
90 90 92 94 93 95 93 95 95 89 98 98 98 97 98 98 88 85 94 87 84 83 75 76 75 73 75 76 73 67 63 62 69 74 75 74 72 72 65 69 72 67 61 65 67 61 67
75 79 82 83 88 94 95 97 98 96 98 98 98 98 97 96 93 94 99 89 81 87 87 84 78 79 78 74 71 70 74 79 80 84 81 78 74 75 71 81 81 68 66 75 71 67 64
59 62 66 72 80 86 91 96 97 97 98 98 97 95 97 93 94 97 93 84 75 88 87 88 89 91 83 71 75 77 80 83 86 85 88 89 84 94 78 90 89 78 68 69 68 67 68
42 46 49 56 64 71 78 85 91 95 98 97 98 93 98 90 95 84 76 78 82 84 81 90 92 89 76 84 85 87 89 88 89 85 87 87 90 95 85 97 96 55 60 66 68 60 61
42 39 41 40 43 51 59 72 78 86 98 99 98 98 98 95 92 94 86 82 83 89 92 90 89 81 92 91 96 98 93 96 86 86 87 85 93 99 98 93 82 56 63 69 73 52 58
42 37 35 39 35 35 42 52 64 74 84 98 98 97 98 98 96 95 92 88 89 91 92 88 89 86 94 96 99 98 96 93 90 86 83 91 95 98 98 98 90 46 58 63 71 60 53
45 42 37 38 38 36 36 34 38 46 58 74 92 93 96 94 96 96 97 91 87 90 90 90 88 92 94 98 98 98 96 87 93 84 88 93 94 96 96 97 90 60 68 73 80 54 57
40 35 34 34 35 38 40 43 43 41 45 56 65 79 89 90 90 93 92 92 93 94 94 97 97 93 95 99 98 98 97 94 91 76 83 93 97 94 96 98 94 67 77 77 68 67 67
42 40 37 33 36 36 38 38 40 51 55 59 55 61 77 88 88 88 88 90 97 96 96 96 97 95 99 99 98 98 99 98 93 95 86 96 85 89 92 89 83 81 77 75 74 73 73

GFSGBSN_prec_cthk_228.txt.gz
RH
17 10 11 13 18 25 28 28 29 28 28 28 25 24 24 23 22 21 21 21 21 20 19 20 21 21 21 23 24 25 27 28 30 32 34 34 32 30 27 24 24 23 23 21 20 22 24
29 15 10 12 14 22 28 28 29 29 28 28 27 26 24 24 23 22 21 21 20 20 20 19 19 20 21 21 21 24 26 28 27 29 32 35 35 33 31 28 25 25 23 22 21 20 21
42 26 13 11 12 17 25 29 29 30 29 28 28 28 26 25 24 22 22 20 20 19 19 18 18 18 21 20 21 23 27 28 27 27 30 33 35 35 35 33 30 26 25 23 22 22 22
52 38 21 11 11 14 20 27 30 31 31 29 27 29 28 25 24 23 22 21 19 18 18 17 17 17 21 19 21 24 27 27 26 28 30 33 34 36 36 36 33 30 27 25 24 22 22
58 52 33 16 11 14 17 23 29 31 32 30 28 29 28 27 26 24 22 21 19 17 17 16 16 18 20 19 21 23 25 27 29 33 35 37 35 37 37 37 36 34 29 29 27 23 23
67 60 48 26 13 13 15 19 25 30 33 32 30 30 30 27 27 24 22 20 18 17 16 16 17 19 18 21 20 21 23 26 29 35 37 39 39 36 38 37 35 33 33 32 30 28 26
87 72 57 37 22 13 14 17 20 26 31 33 31 31 30 28 26 24 21 19 19 19 17 16 18 19 18 18 18 21 23 24 29 35 37 40 39 38 37 38 37 36 36 35 34 33 30
87 80 61 51 31 18 15 16 19 23 27 31 31 31 31 29 26 24 20 19 19 18 16 14 14 15 15 17 18 20 20 23 32 34 38 40 41 39 39 39 39 39 38 37 35 32 30
89 92 67 55 41 32 17 17 19 22 25 28 29 30 30 28 26 23 20 19 18 17 21 16 15 15 17 17 17 18 22 28 32 34 35 39 39 38 41 40 39 39 39 39 37 32 30
86 88 88 61 60 40 24 19 20 22 25 27 29 29 30 28 27 23 21 19 19 21 20 15 16 20 19 20 22 21 26 26 30 32 34 35 38 40 40 39 38 40 39 38 37 35 35
84 95 98 76 62 43 40 23 21 22 25 28 29 30 31 29 27 25 22 21 22 24 23 16 21 21 24 24 24 26 27 28 28 31 33 34 36 38 39 39 38 40 36 36 36 35 36
90 93 93 85 66 50 42 39 25 24 27 28 31 32 32 31 29 25 24 26 26 25 25 17 22 24 27 27 27 28 28 29 27 29 32 31 32 35 38 39 39 38 37 37 36 36 38
78 91 90 90 68 63 42 38 32 29 31 31 34 34 34 31 32 28 30 32 30 30 20 18 22 23 27 28 27 27 28 30 27 31 32 30 31 32 36 38 40 40 40 41 43 43 36
80 90 87 88 89 73 46 38 43 42 36 36 38 39 36 34 33 34 38 37 34 21 18 21 23 25 26 26 28 29 29 31 28 29 31 32 36 32 35 39 40 39 40 43 49 42 40
81 77 87 88 93 76 52 45 42 48 50 42 47 45 41 38 39 40 46 44 25 23 20 23 25 25 26 27 28 29 29 29 28 30 35 35 34 33 34 37 40 42 43 42 46 43 47
71 88 96 96 98 90 54 55 43 40 45 47 50 50 45 43 44 47 57 37 30 26 24 24 20 21 24 26 29 30 29 26 28 30 35 37 39 37 41 39 39 41 43 44 44 50 46
78 92 86 91 94 95 72 61 50 48 49 60 58 58 50 51 54 56 53 43 37 32 27 24 23 25 27 29 26 29 29 27 27 30 34 38 42 42 44 43 44 45 45 42 44 46 49
60 80 88 96 98 98 91 75 61 64 70 75 65 65 61 60 65 56 48 40 40 36 31 30 28 26 28 30 30 33 31 25 28 30 41 41 46 45 42 46 46 49 47 46 50 49 47
72 85 90 97 97 97 97 88 76 74 70 69 72 71 72 66 65 56 47 45 46 45 37 34 33 28 29 30 32 32 32 29 30 34 46 48 51 54 54 51 50 50 51 49 49 51 50
89 94 92 97 97 99 99 98 88 82 78 79 79 84 86 76 51 50 53 55 50 47 47 42 35 36 36 34 34 32 36 38 40 48 59 57 53 57 62 59 56 56 59 54 51 57 53
92 97 96 99 99 96 98 98 95 92 94 96 92 94 87 76 70 58 60 52 57 55 52 50 45 42 42 43 43 40 42 52 62 63 65 65 62 59 64 65 66 65 55 58 57 57 55
95 95 98 98 96 98 97 98 98 98 99 98 98 96 91 75 76 73 69 61 57 62 57 51 48 50 56 59 53 54 60 69 71 77 77 70 70 75 75 75 73 64 60 66 58 52 50
86 90 95 96 98 94 98 98 98 94 99 98 98 95 92 90 89 87 67 64 66 73 73 68 68 73 72 63 66 72 79 80 82 83 80 84 87 91 84 78 78 68 61 59 54 57 56
77 80 85 90 94 95 93 97 97 99 99 99 98 98 98 96 96 91 85 86 85 86 84 82 85 86 72 77 83 83 87 92 91 88 88 86 92 94 94 95 93 48 53 62 59 51 56
66 66 71 73 77 86 91 95 95 98 99 92 98 97 98 91 87 92 92 94 93 93 92 91 90 84 89 89 96 97 96 99 87 84 83 85 92 98 97 97 74 52 59 60 61 46 53
66 67 67 67 74 74 81 89 94 98 97 98 98 98 98 96 97 93 95 95 96 93 91 89 89 93 94 95 99 98 95 88 90 81 76 86 90 96 98 98 89 38 56 55 60 51 55
63 62 63 65 65 67 70 77 82 90 96 98 98 98 98 99 97 94 97 95 93 91 90 91 91 95 96 98 99 97 95 87 92 81 86 90 92 95 89 96 77 47 66 67 70 45 53
52 57 58 59 57 54 59 70 73 78 87 95 96 97 98 98 97 98 98 98 97 95 93 93 97 94 98 99 99 97 96 91 86 65 75 90 93 92 91 95 88 54 64 70 54 60 59
40 45 50 53 51 50 50 51 59 70 74 86 87 85 89 97 96 97 98 97 94 93 98 98 97 97 98 98 93 97 98 93 87 86 76 91 75 80 82 76 65 67 70 68 65 67 66